Year,Month,Day,Hour,Minute,Value (Times are PST for temperature in C)
2020,10,26,00,00,4.20
2020,10,26,00,01,4.20
2020,10,26,00,02,4.20
2020,10,26,00,04,4.20
2020,10,26,00,05,4.20
2020,10,26,00,06,4.20
2020,10,26,00,07,4.20
2020,10,26,00,08,4.20
2020,10,26,00,09,4.20
2020,10,26,00,10,4.20
2020,10,26,00,11,4.20
2020,10,26,00,12,4.20
2020,10,26,00,13,4.20
2020,10,26,00,14,4.20
2020,10,26,00,15,4.20
2020,10,26,00,16,4.20
2020,10,26,00,17,4.20
2020,10,26,00,18,4.20
2020,10,26,00,19,4.20
2020,10,26,00,20,4.10
2020,10,26,00,21,4.10
2020,10,26,00,22,4.10
2020,10,26,00,23,4.10
2020,10,26,00,24,4.10
2020,10,26,00,25,4.10
2020,10,26,00,26,4.10
2020,10,26,00,27,4.10
2020,10,26,00,28,4.10
2020,10,26,00,29,4.10
2020,10,26,00,30,4.10
2020,10,26,00,31,4.10
2020,10,26,00,32,4.10
2020,10,26,00,33,4.00
2020,10,26,00,35,4.00
2020,10,26,00,36,4.00
2020,10,26,00,37,4.00
2020,10,26,00,38,4.00
2020,10,26,00,39,4.00
2020,10,26,00,40,4.00
2020,10,26,00,42,4.00
2020,10,26,00,43,4.00
2020,10,26,00,44,4.00
2020,10,26,00,45,4.00
2020,10,26,00,46,4.00
2020,10,26,00,47,4.00
2020,10,26,00,48,4.00
2020,10,26,00,49,4.00
2020,10,26,00,50,4.00
2020,10,26,00,51,4.00
2020,10,26,00,52,4.00
2020,10,26,00,53,4.10
2020,10,26,00,54,4.10
2020,10,26,00,55,4.10
2020,10,26,00,56,4.10
2020,10,26,00,57,4.10
2020,10,26,00,58,4.10
2020,10,26,00,59,4.10
2020,10,26,01,00,4.10
2020,10,26,01,01,4.10
2020,10,26,01,02,4.10
2020,10,26,01,03,4.10
2020,10,26,01,05,4.10
2020,10,26,01,06,4.10
2020,10,26,01,07,4.10
2020,10,26,01,08,4.10
2020,10,26,01,09,4.10
2020,10,26,01,10,4.10
2020,10,26,01,11,4.10
2020,10,26,01,12,4.10
2020,10,26,01,13,4.10
2020,10,26,01,14,4.10
2020,10,26,01,15,4.10
2020,10,26,01,16,4.10
2020,10,26,01,17,4.10
2020,10,26,01,18,4.10
2020,10,26,01,19,4.10
2020,10,26,01,20,4.10
2020,10,26,01,21,4.10
2020,10,26,01,22,4.10
2020,10,26,01,24,4.10
2020,10,26,01,25,4.10
2020,10,26,01,26,4.10
2020,10,26,01,27,4.10
2020,10,26,01,28,4.10
2020,10,26,01,29,4.10
2020,10,26,01,30,4.10
2020,10,26,01,31,4.10
2020,10,26,01,32,4.10
2020,10,26,01,33,4.10
2020,10,26,01,34,4.10
2020,10,26,01,35,4.10
2020,10,26,01,36,4.10
2020,10,26,01,37,4.10
2020,10,26,01,39,4.10
2020,10,26,01,40,4.10
2020,10,26,01,41,4.20
2020,10,26,01,42,4.20
2020,10,26,01,43,4.20
2020,10,26,01,44,4.20
2020,10,26,01,45,4.20
2020,10,26,01,46,4.20
2020,10,26,01,47,4.20
2020,10,26,01,49,4.20
2020,10,26,01,51,4.20
2020,10,26,01,52,4.20
2020,10,26,01,53,4.20
2020,10,26,01,54,4.30
2020,10,26,01,55,4.30
2020,10,26,01,56,4.20
2020,10,26,01,57,4.30
2020,10,26,01,58,4.30
2020,10,26,01,59,4.30
2020,10,26,02,00,4.30
2020,10,26,02,01,4.30
2020,10,26,02,02,4.30
2020,10,26,02,03,4.30
2020,10,26,02,04,4.30
2020,10,26,02,05,4.30
2020,10,26,02,06,4.30
2020,10,26,02,07,4.30
2020,10,26,02,08,4.30
2020,10,26,02,10,4.30
2020,10,26,02,11,4.30
2020,10,26,02,12,4.30
2020,10,26,02,13,4.30
2020,10,26,02,14,4.30
2020,10,26,02,15,4.30
2020,10,26,02,16,4.30
2020,10,26,02,17,4.30
2020,10,26,02,18,4.30
2020,10,26,02,19,4.30
2020,10,26,02,20,4.30
2020,10,26,02,21,4.30
2020,10,26,02,22,4.30
2020,10,26,02,23,4.30
2020,10,26,02,24,4.30
2020,10,26,02,25,4.30
2020,10,26,02,26,4.30
2020,10,26,02,27,4.30
2020,10,26,02,28,4.30
2020,10,26,02,29,4.30
2020,10,26,02,30,4.30
2020,10,26,02,31,4.30
2020,10,26,02,32,4.30
2020,10,26,02,33,4.30
2020,10,26,02,34,4.30
2020,10,26,02,35,4.20
2020,10,26,02,36,4.20
2020,10,26,02,37,4.20
2020,10,26,02,39,4.20
2020,10,26,02,40,4.20
2020,10,26,02,41,4.20
2020,10,26,02,42,4.20
2020,10,26,02,43,4.20
2020,10,26,02,44,4.20
2020,10,26,02,45,4.20
2020,10,26,02,46,4.20
2020,10,26,02,47,4.20
2020,10,26,02,48,4.20
2020,10,26,02,50,4.20
2020,10,26,02,51,4.20
2020,10,26,02,52,4.20
2020,10,26,02,53,4.20
2020,10,26,02,54,4.20
2020,10,26,02,55,4.20
2020,10,26,02,56,4.20
2020,10,26,02,57,4.20
2020,10,26,02,58,4.20
2020,10,26,02,59,4.20
2020,10,26,03,00,4.20
2020,10,26,03,01,4.20
2020,10,26,03,02,4.20
2020,10,26,03,03,4.20
2020,10,26,03,04,4.20
2020,10,26,03,05,4.20
2020,10,26,03,06,4.20
2020,10,26,03,07,4.20
2020,10,26,03,09,4.20
2020,10,26,03,11,4.20
2020,10,26,03,12,4.20
2020,10,26,03,13,4.20
2020,10,26,03,14,4.20
2020,10,26,03,15,4.20
2020,10,26,03,16,4.20
2020,10,26,03,17,4.20
2020,10,26,03,18,4.20
2020,10,26,03,19,4.20
2020,10,26,03,20,4.20
2020,10,26,03,21,4.20
2020,10,26,03,22,4.20
2020,10,26,03,23,4.20
2020,10,26,03,24,4.20
2020,10,26,03,25,4.20
2020,10,26,03,26,4.20
2020,10,26,03,27,4.20
2020,10,26,03,28,4.20
2020,10,26,03,29,4.20
2020,10,26,03,30,4.20
2020,10,26,03,31,4.20
2020,10,26,03,32,4.20
2020,10,26,03,33,4.20
2020,10,26,03,34,4.20
2020,10,26,03,35,4.20
2020,10,26,03,36,4.20
2020,10,26,03,37,4.20
2020,10,26,03,38,4.20
2020,10,26,03,39,4.20
2020,10,26,03,40,4.10
2020,10,26,03,41,4.10
2020,10,26,03,42,4.10
2020,10,26,03,43,4.20
2020,10,26,03,44,4.10
2020,10,26,03,45,4.10
2020,10,26,03,46,4.20
2020,10,26,03,47,4.10
2020,10,26,03,48,4.10
2020,10,26,03,49,4.10
2020,10,26,03,51,4.10
2020,10,26,03,52,4.10
2020,10,26,03,53,4.10
2020,10,26,03,54,4.10
2020,10,26,03,55,4.10
2020,10,26,03,56,4.10
2020,10,26,03,57,4.10
2020,10,26,03,58,4.10
2020,10,26,03,59,4.10
2020,10,26,04,00,4.10
2020,10,26,04,01,4.10
2020,10,26,04,02,4.10
2020,10,26,04,03,4.10
2020,10,26,04,04,4.10
2020,10,26,04,05,4.10
2020,10,26,04,06,4.10
2020,10,26,04,08,4.10
2020,10,26,04,10,4.10
2020,10,26,04,11,4.10
2020,10,26,04,12,4.10
2020,10,26,04,13,4.10
2020,10,26,04,14,4.10
2020,10,26,04,15,4.00
2020,10,26,04,16,4.10
2020,10,26,04,17,4.00
2020,10,26,04,18,4.00
2020,10,26,04,19,4.00
2020,10,26,04,20,4.00
2020,10,26,04,21,4.00
2020,10,26,04,22,4.00
2020,10,26,04,23,4.00
2020,10,26,04,24,3.90
2020,10,26,04,25,4.00
2020,10,26,04,26,4.00
2020,10,26,04,27,3.90
2020,10,26,04,28,3.90
2020,10,26,04,29,3.90
2020,10,26,04,30,3.90
2020,10,26,04,31,3.90
2020,10,26,04,32,3.90
2020,10,26,04,33,3.90
2020,10,26,04,34,3.90
2020,10,26,04,35,3.90
2020,10,26,04,36,3.90
2020,10,26,04,37,3.90
2020,10,26,04,38,3.90
2020,10,26,04,39,3.90
2020,10,26,04,40,3.90
2020,10,26,04,41,3.90
2020,10,26,04,42,3.90
2020,10,26,04,43,3.90
2020,10,26,04,44,3.90
2020,10,26,04,45,3.90
2020,10,26,04,46,3.90
2020,10,26,04,47,3.90
2020,10,26,04,48,3.90
2020,10,26,04,49,3.90
2020,10,26,04,50,3.90
2020,10,26,04,51,3.90
2020,10,26,04,52,3.90
2020,10,26,04,53,3.90
2020,10,26,04,54,3.90
2020,10,26,04,56,3.90
2020,10,26,04,57,3.90
2020,10,26,04,58,3.90
2020,10,26,04,59,3.90
2020,10,26,05,00,3.90
2020,10,26,05,01,3.90
2020,10,26,05,03,4.00
2020,10,26,05,04,3.90
2020,10,26,05,05,3.90
2020,10,26,05,06,4.00
2020,10,26,05,07,3.90
2020,10,26,05,08,3.90
2020,10,26,05,09,3.90
2020,10,26,05,10,3.90
2020,10,26,05,11,3.90
2020,10,26,05,12,3.90
2020,10,26,05,13,3.90
2020,10,26,05,14,3.90
2020,10,26,05,15,3.90
2020,10,26,05,16,3.90
2020,10,26,05,17,3.90
2020,10,26,05,18,3.80
2020,10,26,05,19,3.80
2020,10,26,05,20,3.80
2020,10,26,05,21,3.80
2020,10,26,05,22,3.80
2020,10,26,05,23,3.80
2020,10,26,05,24,3.80
2020,10,26,05,25,3.80
2020,10,26,05,26,3.70
2020,10,26,05,28,3.70
2020,10,26,05,29,3.70
2020,10,26,05,30,3.70
2020,10,26,05,31,3.70
2020,10,26,05,32,3.70
2020,10,26,05,34,3.70
2020,10,26,05,35,3.70
2020,10,26,05,36,3.70
2020,10,26,05,37,3.70
2020,10,26,05,38,3.70
2020,10,26,05,39,3.70
2020,10,26,05,40,3.70
2020,10,26,05,41,3.70
2020,10,26,05,42,3.70
2020,10,26,05,43,3.70
2020,10,26,05,44,3.80
2020,10,26,05,45,3.80
2020,10,26,05,46,3.80
2020,10,26,05,47,3.80
2020,10,26,05,48,3.80
2020,10,26,05,49,3.80
2020,10,26,05,50,3.80
2020,10,26,05,51,3.80
2020,10,26,05,52,3.80
2020,10,26,05,53,3.80
2020,10,26,05,54,3.80
2020,10,26,05,55,3.80
2020,10,26,05,56,3.80
2020,10,26,05,57,3.90
2020,10,26,05,58,3.90
2020,10,26,05,59,3.90
2020,10,26,06,00,3.90
2020,10,26,06,01,3.90
2020,10,26,06,02,3.90
2020,10,26,06,03,3.90
2020,10,26,06,04,3.90
2020,10,26,06,05,3.90
2020,10,26,06,06,3.90
2020,10,26,06,07,3.90
2020,10,26,06,08,3.90
2020,10,26,06,09,3.90
2020,10,26,06,10,3.90
2020,10,26,06,11,3.90
2020,10,26,06,12,3.90
2020,10,26,06,13,3.90
2020,10,26,06,14,3.90
2020,10,26,06,15,3.90
2020,10,26,06,16,3.90
2020,10,26,06,17,3.90
2020,10,26,06,18,3.90
2020,10,26,06,19,4.00
2020,10,26,06,20,4.00
2020,10,26,06,21,4.00
2020,10,26,06,22,4.00
2020,10,26,06,23,4.00
2020,10,26,06,24,4.00
2020,10,26,06,25,4.00
2020,10,26,06,26,4.00
2020,10,26,06,27,4.00
2020,10,26,06,28,4.00
2020,10,26,06,29,4.00
2020,10,26,06,30,4.10
2020,10,26,06,31,4.10
2020,10,26,06,32,4.10
2020,10,26,06,33,4.10
2020,10,26,06,34,4.10
2020,10,26,06,35,4.10
2020,10,26,06,36,4.10
2020,10,26,06,37,4.10
2020,10,26,06,38,4.10
2020,10,26,06,39,4.10
2020,10,26,06,40,4.10
2020,10,26,06,41,4.10
2020,10,26,06,42,4.10
2020,10,26,06,43,4.10
2020,10,26,06,44,4.10
2020,10,26,06,45,4.10
2020,10,26,06,46,4.10
2020,10,26,06,47,4.10
2020,10,26,06,48,4.10
2020,10,26,06,49,4.10
2020,10,26,06,50,4.10
2020,10,26,06,51,4.10
2020,10,26,06,52,4.10
2020,10,26,06,53,4.10
2020,10,26,06,54,4.10
2020,10,26,06,55,4.20
2020,10,26,06,56,4.20
2020,10,26,06,57,4.20
2020,10,26,06,58,4.20
2020,10,26,06,59,4.20
2020,10,26,07,00,4.20
2020,10,26,07,01,4.20
2020,10,26,07,02,4.10
2020,10,26,07,03,4.10
2020,10,26,07,04,4.10
2020,10,26,07,05,4.20
2020,10,26,07,06,4.20
2020,10,26,07,07,4.20
2020,10,26,07,08,4.20
2020,10,26,07,09,4.20
2020,10,26,07,10,4.20
2020,10,26,07,11,4.20
2020,10,26,07,12,4.20
2020,10,26,07,13,4.20
2020,10,26,07,14,4.20
2020,10,26,07,15,4.20
2020,10,26,07,16,4.20
2020,10,26,07,17,4.30
2020,10,26,07,18,4.30
2020,10,26,07,19,4.30
2020,10,26,07,20,4.30
2020,10,26,07,21,4.30
2020,10,26,07,22,4.20
2020,10,26,07,23,4.20
2020,10,26,07,24,4.20
2020,10,26,07,25,4.20
2020,10,26,07,26,4.20
2020,10,26,07,27,4.20
2020,10,26,07,28,4.20
2020,10,26,07,29,4.20
2020,10,26,07,30,4.20
2020,10,26,07,31,4.20
2020,10,26,07,32,4.20
2020,10,26,07,33,4.20
2020,10,26,07,34,4.20
2020,10,26,07,35,4.30
2020,10,26,07,36,4.30
2020,10,26,07,37,4.30
2020,10,26,07,38,4.30
2020,10,26,07,39,4.30
2020,10,26,07,40,4.30
2020,10,26,07,41,4.30
2020,10,26,07,42,4.30
2020,10,26,07,43,4.30
2020,10,26,07,44,4.30
2020,10,26,07,45,4.30
2020,10,26,07,46,4.30
2020,10,26,07,47,4.30
2020,10,26,07,48,4.30
2020,10,26,07,49,4.30
2020,10,26,07,50,4.30
2020,10,26,07,51,4.30
2020,10,26,07,52,4.30
2020,10,26,07,53,4.40
2020,10,26,07,54,4.40
2020,10,26,07,55,4.40
2020,10,26,07,56,4.40
2020,10,26,07,57,4.40
2020,10,26,07,58,4.40
2020,10,26,07,59,4.40
2020,10,26,08,00,4.40
2020,10,26,08,01,4.40
2020,10,26,08,02,4.40
2020,10,26,08,03,4.40
2020,10,26,08,04,4.40
2020,10,26,08,05,4.40
2020,10,26,08,06,4.40
2020,10,26,08,07,4.40
2020,10,26,08,08,4.40
2020,10,26,08,09,4.40
2020,10,26,08,10,4.40
2020,10,26,08,11,4.40
2020,10,26,08,12,4.40
2020,10,26,08,13,4.40
2020,10,26,08,14,4.40
2020,10,26,08,15,4.40
2020,10,26,08,16,4.40
2020,10,26,08,17,4.50
2020,10,26,08,18,4.50
2020,10,26,08,19,4.50
2020,10,26,08,20,4.50
2020,10,26,08,21,4.50
2020,10,26,08,22,4.50
2020,10,26,08,23,4.50
2020,10,26,08,24,4.50
2020,10,26,08,25,4.60
2020,10,26,08,26,4.60
2020,10,26,08,27,4.60
2020,10,26,08,28,4.60
2020,10,26,08,29,4.60
2020,10,26,08,30,4.60
2020,10,26,08,31,4.60
2020,10,26,08,32,4.60
2020,10,26,08,33,4.60
2020,10,26,08,34,4.60
2020,10,26,08,35,4.60
2020,10,26,08,36,4.60
2020,10,26,08,37,4.60
2020,10,26,08,38,4.70
2020,10,26,08,39,4.70
2020,10,26,08,40,4.70
2020,10,26,08,41,4.70
2020,10,26,08,42,4.70
2020,10,26,08,43,4.70
2020,10,26,08,44,4.70
2020,10,26,08,45,4.70
2020,10,26,08,46,4.70
2020,10,26,08,47,4.70
2020,10,26,08,48,4.70
2020,10,26,08,49,4.70
2020,10,26,08,50,4.70
2020,10,26,08,51,4.70
2020,10,26,08,52,4.80
2020,10,26,08,53,4.80
2020,10,26,08,54,4.80
2020,10,26,08,55,4.80
2020,10,26,08,56,4.80
2020,10,26,08,57,4.80
2020,10,26,08,58,4.80
2020,10,26,08,59,4.80
2020,10,26,09,00,4.80
2020,10,26,09,01,4.80
2020,10,26,09,02,4.90
2020,10,26,09,03,4.90
2020,10,26,09,04,4.90
2020,10,26,09,05,4.90
2020,10,26,09,06,4.90
2020,10,26,09,07,4.90
2020,10,26,09,08,4.90
2020,10,26,09,09,4.90
2020,10,26,09,10,4.90
2020,10,26,09,11,4.90
2020,10,26,09,12,4.90
2020,10,26,09,13,4.90
2020,10,26,09,14,5.00
2020,10,26,09,15,5.00
2020,10,26,09,16,5.00
2020,10,26,09,17,5.00
2020,10,26,09,18,5.10
2020,10,26,09,19,5.10
2020,10,26,09,20,5.10
2020,10,26,09,21,5.10
2020,10,26,09,22,5.10
2020,10,26,09,23,5.10
2020,10,26,09,24,5.10
2020,10,26,09,25,5.10
2020,10,26,09,26,5.20
2020,10,26,09,27,5.20
2020,10,26,09,28,5.20
2020,10,26,09,29,5.20
2020,10,26,09,30,5.20
2020,10,26,09,31,5.30
2020,10,26,09,32,5.30
2020,10,26,09,33,5.30
2020,10,26,09,34,5.30
2020,10,26,09,35,5.30
2020,10,26,09,36,5.30
2020,10,26,09,37,5.30
2020,10,26,09,38,5.30
2020,10,26,09,39,5.30
2020,10,26,09,40,5.30
2020,10,26,09,41,5.30
2020,10,26,09,42,5.30
2020,10,26,09,43,5.30
2020,10,26,09,44,5.30
2020,10,26,09,45,5.40
2020,10,26,09,46,5.40
2020,10,26,09,47,5.40
2020,10,26,09,48,5.40
2020,10,26,09,49,5.40
2020,10,26,09,50,5.40
2020,10,26,09,51,5.40
2020,10,26,09,52,5.40
2020,10,26,09,53,5.40
2020,10,26,09,54,5.40
2020,10,26,09,55,5.40
2020,10,26,09,56,5.40
2020,10,26,09,57,5.50
2020,10,26,09,58,5.50
2020,10,26,09,59,5.40
2020,10,26,10,00,5.40
2020,10,26,10,01,5.40
2020,10,26,10,02,5.40
2020,10,26,10,03,5.40
2020,10,26,10,04,5.40
2020,10,26,10,05,5.50
2020,10,26,10,06,5.50
2020,10,26,10,07,5.50
2020,10,26,10,08,5.50
2020,10,26,10,09,5.50
2020,10,26,10,10,5.60
2020,10,26,10,11,5.60
2020,10,26,10,12,5.60
2020,10,26,10,13,5.60
2020,10,26,10,14,5.60
2020,10,26,10,15,5.60
2020,10,26,10,16,5.60
2020,10,26,10,17,5.60
2020,10,26,10,18,5.60
2020,10,26,10,19,5.70
2020,10,26,10,20,5.70
2020,10,26,10,21,5.70
2020,10,26,10,22,5.70
2020,10,26,10,23,5.70
2020,10,26,10,24,5.70
2020,10,26,10,25,5.70
2020,10,26,10,26,5.80
2020,10,26,10,27,5.80
2020,10,26,10,28,5.80
2020,10,26,10,29,5.80
2020,10,26,10,30,5.80
2020,10,26,10,31,5.80
2020,10,26,10,32,5.80
2020,10,26,10,33,5.80
2020,10,26,10,34,5.80
2020,10,26,10,35,5.80
2020,10,26,10,36,5.90
2020,10,26,10,37,5.90
2020,10,26,10,38,5.90
2020,10,26,10,39,6.00
2020,10,26,10,40,6.10
2020,10,26,10,41,6.10
2020,10,26,10,42,6.10
2020,10,26,10,43,6.10
2020,10,26,10,44,6.10
2020,10,26,10,45,6.20
2020,10,26,10,46,6.20
2020,10,26,10,47,6.20
2020,10,26,10,48,6.20
2020,10,26,10,49,6.20
2020,10,26,10,50,6.20
2020,10,26,10,51,6.30
2020,10,26,10,52,6.30
2020,10,26,10,53,6.30
2020,10,26,10,54,6.30
2020,10,26,10,55,6.40
2020,10,26,10,56,6.40
2020,10,26,10,57,6.40
2020,10,26,10,58,6.40
2020,10,26,10,59,6.50
2020,10,26,11,00,6.50
2020,10,26,11,01,6.50
2020,10,26,11,02,6.60
2020,10,26,11,03,6.60
2020,10,26,11,04,6.60
2020,10,26,11,05,6.60
2020,10,26,11,06,6.70
2020,10,26,11,07,6.70
2020,10,26,11,08,6.70
2020,10,26,11,09,6.80
2020,10,26,11,10,6.80
2020,10,26,11,11,6.80
2020,10,26,11,12,6.90
2020,10,26,11,13,6.90
2020,10,26,11,14,6.90
2020,10,26,11,15,6.90
2020,10,26,11,16,7.00
2020,10,26,11,17,7.00
2020,10,26,11,18,7.00
2020,10,26,11,19,7.00
2020,10,26,11,20,7.00
2020,10,26,11,21,7.10
2020,10,26,11,22,7.10
2020,10,26,11,23,7.10
2020,10,26,11,24,7.10
2020,10,26,11,25,7.10
2020,10,26,11,26,7.10
2020,10,26,11,27,7.20
2020,10,26,11,28,7.20
2020,10,26,11,29,7.20
2020,10,26,11,30,7.20
2020,10,26,11,31,7.20
2020,10,26,11,32,7.20
2020,10,26,11,33,7.20
2020,10,26,11,34,7.20
2020,10,26,11,35,7.20
2020,10,26,11,36,7.30
2020,10,26,11,37,7.30
2020,10,26,11,38,7.30
2020,10,26,11,39,7.30
2020,10,26,11,40,7.30
2020,10,26,11,41,7.40
2020,10,26,11,42,7.40
2020,10,26,11,43,7.40
2020,10,26,11,44,7.40
2020,10,26,11,45,7.40
2020,10,26,11,46,7.40
2020,10,26,11,47,7.50
2020,10,26,11,48,7.50
2020,10,26,11,49,7.60
2020,10,26,11,50,7.60
2020,10,26,11,51,7.60
2020,10,26,11,52,7.60
2020,10,26,11,53,7.70
2020,10,26,11,54,7.70
2020,10,26,11,55,7.70
2020,10,26,11,56,7.80
2020,10,26,11,57,7.80
2020,10,26,11,58,7.80
2020,10,26,11,59,7.80
2020,10,26,12,00,7.80
2020,10,26,12,01,7.90
2020,10,26,12,02,7.90
2020,10,26,12,03,8.00
2020,10,26,12,04,8.00
2020,10,26,12,05,8.10
2020,10,26,12,06,8.10
2020,10,26,12,07,8.20
2020,10,26,12,08,8.20
2020,10,26,12,09,8.20
2020,10,26,12,10,8.20
2020,10,26,12,11,8.20
2020,10,26,12,12,8.10
2020,10,26,12,13,8.10
2020,10,26,12,14,8.10
2020,10,26,12,15,8.10
2020,10,26,12,16,8.20
2020,10,26,12,17,8.20
2020,10,26,12,18,8.20
2020,10,26,12,19,8.20
2020,10,26,12,20,8.20
2020,10,26,12,21,8.20
2020,10,26,12,22,8.20
2020,10,26,12,23,8.30
2020,10,26,12,24,8.30
2020,10,26,12,25,8.30
2020,10,26,12,26,8.40
2020,10,26,12,27,8.40
2020,10,26,12,28,8.40
2020,10,26,12,29,8.40
2020,10,26,12,30,8.50
2020,10,26,12,31,8.50
2020,10,26,12,32,8.50
2020,10,26,12,33,8.60
2020,10,26,12,34,8.60
2020,10,26,12,35,8.70
2020,10,26,12,36,8.80
2020,10,26,12,37,8.80
2020,10,26,12,38,8.90
2020,10,26,12,39,8.90
2020,10,26,12,40,8.90
2020,10,26,12,41,8.90
2020,10,26,12,42,8.90
2020,10,26,12,44,8.90
2020,10,26,12,45,8.90
2020,10,26,12,47,8.90
2020,10,26,12,48,9.00
2020,10,26,12,49,9.10
2020,10,26,12,50,9.10
2020,10,26,12,52,9.20
2020,10,26,12,53,9.20
2020,10,26,12,54,9.20
2020,10,26,12,55,9.30
2020,10,26,12,56,9.30
2020,10,26,12,57,9.30
2020,10,26,12,58,9.30
2020,10,26,12,59,9.40
2020,10,26,13,00,9.40
2020,10,26,13,01,9.50
2020,10,26,13,02,9.50
2020,10,26,13,03,9.50
2020,10,26,13,05,9.60
2020,10,26,13,06,9.60
2020,10,26,13,07,9.60
2020,10,26,13,08,9.60
2020,10,26,13,09,9.60
2020,10,26,13,10,9.60
2020,10,26,13,11,9.60
2020,10,26,13,12,9.70
2020,10,26,13,13,9.70
2020,10,26,13,14,9.70
2020,10,26,13,15,9.80
2020,10,26,13,16,9.80
2020,10,26,13,17,9.80
2020,10,26,13,18,9.90
2020,10,26,13,19,9.90
2020,10,26,13,20,10.00
2020,10,26,13,22,10.10
2020,10,26,13,23,10.10
2020,10,26,13,24,10.10
2020,10,26,13,25,10.10
2020,10,26,13,26,10.10
2020,10,26,13,28,10.10
2020,10,26,13,29,10.20
2020,10,26,13,30,10.20
2020,10,26,13,31,10.20
2020,10,26,13,32,10.10
2020,10,26,13,33,10.10
2020,10,26,13,34,10.20
2020,10,26,13,35,10.20
2020,10,26,13,36,10.20
2020,10,26,13,37,10.30
2020,10,26,13,38,10.30
2020,10,26,13,39,10.30
2020,10,26,13,41,10.30
2020,10,26,13,42,10.40
2020,10,26,13,43,10.30
2020,10,26,13,44,10.30
2020,10,26,13,47,10.30
2020,10,26,13,49,10.30
2020,10,26,13,50,10.30
2020,10,26,13,51,10.30
2020,10,26,13,52,10.30
2020,10,26,13,53,10.20
2020,10,26,13,54,10.20
2020,10,26,13,55,10.20
2020,10,26,13,57,10.30
2020,10,26,13,58,10.30
2020,10,26,13,59,10.30
2020,10,26,14,00,10.40
2020,10,26,14,01,10.40
2020,10,26,14,02,10.40
2020,10,26,14,03,10.40
2020,10,26,14,04,10.40
2020,10,26,14,05,10.40
2020,10,26,14,06,10.40
2020,10,26,14,08,10.40
2020,10,26,14,09,10.40
2020,10,26,14,10,10.40
2020,10,26,14,11,10.50
2020,10,26,14,12,10.50
2020,10,26,14,13,10.60
2020,10,26,14,14,10.60
2020,10,26,14,16,10.70
2020,10,26,14,17,10.80
2020,10,26,14,18,10.80
2020,10,26,14,19,10.90
2020,10,26,14,20,10.90
2020,10,26,14,21,11.00
2020,10,26,14,22,11.10
2020,10,26,14,23,11.10
2020,10,26,14,25,11.20
2020,10,26,14,27,11.30
2020,10,26,14,28,11.40
2020,10,26,14,30,11.40
2020,10,26,14,31,11.40
2020,10,26,14,32,11.40
2020,10,26,14,33,11.40
2020,10,26,14,35,11.50
2020,10,26,14,37,11.60
2020,10,26,14,38,11.60
2020,10,26,14,39,11.60
2020,10,26,14,40,11.70
2020,10,26,14,41,11.70
2020,10,26,14,42,11.80
2020,10,26,14,43,11.80
2020,10,26,14,44,11.80
2020,10,26,14,45,11.90
2020,10,26,14,46,11.90
2020,10,26,14,48,12.10
2020,10,26,14,49,12.10
2020,10,26,14,50,12.10
2020,10,26,14,51,12.10
2020,10,26,14,52,12.10
2020,10,26,14,53,12.00
2020,10,26,14,54,12.00
2020,10,26,14,55,11.90
2020,10,26,14,56,11.90
2020,10,26,14,57,11.80
2020,10,26,14,58,11.70
2020,10,26,14,59,11.60
2020,10,26,15,00,11.60
2020,10,26,15,02,11.60
2020,10,26,15,03,11.60
2020,10,26,15,04,11.60
2020,10,26,15,06,11.60
2020,10,26,15,07,11.60
2020,10,26,15,09,11.70
2020,10,26,15,10,11.80
2020,10,26,15,11,11.90
2020,10,26,15,13,12.10
2020,10,26,15,14,12.10
2020,10,26,15,15,12.20
2020,10,26,15,16,12.30
2020,10,26,15,18,12.40
2020,10,26,15,19,12.40
2020,10,26,15,20,12.40
2020,10,26,15,21,12.40
2020,10,26,15,22,12.40
2020,10,26,15,24,12.30
2020,10,26,15,26,12.30
2020,10,26,15,27,12.30
2020,10,26,15,29,12.20
2020,10,26,15,30,12.20
2020,10,26,15,31,12.20
2020,10,26,15,32,12.20
2020,10,26,15,33,12.20
2020,10,26,15,34,12.20
2020,10,26,15,36,12.20
2020,10,26,15,37,12.20
2020,10,26,15,38,12.30
2020,10,26,15,39,12.30
2020,10,26,15,41,12.30
2020,10,26,15,42,12.20
2020,10,26,15,43,12.20
2020,10,26,15,44,12.20
2020,10,26,15,45,12.20
2020,10,26,15,46,12.30
2020,10,26,15,47,12.30
2020,10,26,15,49,12.40
2020,10,26,15,50,12.40
2020,10,26,15,51,12.50
2020,10,26,15,52,12.60
2020,10,26,15,53,12.60
2020,10,26,15,54,12.70
2020,10,26,15,55,12.70
2020,10,26,15,58,12.80
2020,10,26,16,00,12.80
2020,10,26,16,02,12.80
2020,10,26,16,04,12.70
2020,10,26,16,06,12.70
2020,10,26,16,07,12.70
2020,10,26,16,08,12.70
2020,10,26,16,10,12.80
2020,10,26,16,12,12.80
2020,10,26,16,13,12.80
2020,10,26,16,14,12.80
2020,10,26,16,15,12.80
2020,10,26,16,16,12.80
2020,10,26,16,17,12.80
2020,10,26,16,18,12.80
2020,10,26,16,19,12.70
2020,10,26,16,20,12.70
2020,10,26,16,21,12.70
2020,10,26,16,23,12.80
2020,10,26,16,25,12.90
2020,10,26,16,26,12.90
2020,10,26,16,27,12.90
2020,10,26,16,28,13.00
2020,10,26,16,29,13.00
2020,10,26,16,30,13.00
2020,10,26,16,31,13.10
2020,10,26,16,32,13.00
2020,10,26,16,33,13.00
2020,10,26,16,34,12.90
2020,10,26,16,36,12.80
2020,10,26,16,38,12.80
2020,10,26,16,40,12.80
2020,10,26,16,41,12.80
2020,10,26,16,42,12.80
2020,10,26,16,43,12.80
2020,10,26,16,44,12.80
2020,10,26,16,45,12.80
2020,10,26,16,46,12.80
2020,10,26,16,47,12.80
2020,10,26,16,49,12.70
2020,10,26,16,50,12.60
2020,10,26,16,51,12.50
2020,10,26,16,52,12.30
2020,10,26,16,53,12.20
2020,10,26,16,55,12.10
2020,10,26,16,56,11.90
2020,10,26,16,57,11.80
2020,10,26,16,58,11.80
2020,10,26,16,59,11.70
2020,10,26,17,00,11.60
2020,10,26,17,01,11.60
2020,10,26,17,02,11.40
2020,10,26,17,03,11.30
2020,10,26,17,05,11.20
2020,10,26,17,06,11.10
2020,10,26,17,07,11.00
2020,10,26,17,09,10.90
2020,10,26,17,10,10.80
2020,10,26,17,11,10.80
2020,10,26,17,12,10.80
2020,10,26,17,13,10.70
2020,10,26,17,14,10.60
2020,10,26,17,15,10.60
2020,10,26,17,17,10.40
2020,10,26,17,19,10.30
2020,10,26,17,20,10.30
2020,10,26,17,22,10.20
2020,10,26,17,23,10.20
2020,10,26,17,24,10.10
2020,10,26,17,25,10.10
2020,10,26,17,26,10.10
2020,10,26,17,27,10.00
2020,10,26,17,28,10.00
2020,10,26,17,30,9.90
2020,10,26,17,31,9.90
2020,10,26,17,32,9.80
2020,10,26,17,34,9.70
2020,10,26,17,35,9.70
2020,10,26,17,36,9.70
2020,10,26,17,37,9.70
2020,10,26,17,38,9.60
2020,10,26,17,39,9.60
2020,10,26,17,40,9.50
2020,10,26,17,41,9.50
2020,10,26,17,42,9.50
2020,10,26,17,43,9.40
2020,10,26,17,44,9.40
2020,10,26,17,45,9.40
2020,10,26,17,46,9.40
2020,10,26,17,47,9.30
2020,10,26,17,48,9.30
2020,10,26,17,49,9.30
2020,10,26,17,50,9.30
2020,10,26,17,51,9.20
2020,10,26,17,52,9.20
2020,10,26,17,53,9.20
2020,10,26,17,54,9.10
2020,10,26,17,56,9.10
2020,10,26,17,58,9.00
2020,10,26,18,00,9.00
2020,10,26,18,01,8.90
2020,10,26,18,02,8.90
2020,10,26,18,03,8.90
2020,10,26,18,04,8.90
2020,10,26,18,05,8.90
2020,10,26,18,06,8.90
2020,10,26,18,07,8.80
2020,10,26,18,08,8.80
2020,10,26,18,09,8.80
2020,10,26,18,10,8.80
2020,10,26,18,11,8.80
2020,10,26,18,13,8.70
2020,10,26,18,14,8.70
2020,10,26,18,15,8.70
2020,10,26,18,16,8.70
2020,10,26,18,17,8.70
2020,10,26,18,18,8.60
2020,10,26,18,19,8.60
2020,10,26,18,21,8.60
2020,10,26,18,22,8.60
2020,10,26,18,23,8.50
2020,10,26,18,24,8.40
2020,10,26,18,25,8.40
2020,10,26,18,26,8.30
2020,10,26,18,27,8.30
2020,10,26,18,28,8.30
2020,10,26,18,29,8.30
2020,10,26,18,30,8.20
2020,10,26,18,32,8.20
2020,10,26,18,34,8.10
2020,10,26,18,35,8.10
2020,10,26,18,36,8.00
2020,10,26,18,37,8.00
2020,10,26,18,38,7.90
2020,10,26,18,39,7.90
2020,10,26,18,40,7.80
2020,10,26,18,41,7.80
2020,10,26,18,42,7.80
2020,10,26,18,43,7.80
2020,10,26,18,44,7.70
2020,10,26,18,45,7.70
2020,10,26,18,46,7.60
2020,10,26,18,48,7.50
2020,10,26,18,50,7.40
2020,10,26,18,53,7.30
2020,10,26,18,55,7.20
2020,10,26,18,56,7.20
2020,10,26,18,57,7.20
2020,10,26,18,59,7.10
2020,10,26,19,00,7.10
2020,10,26,19,01,7.10
2020,10,26,19,02,7.00
2020,10,26,19,03,7.00
2020,10,26,19,04,6.90
2020,10,26,19,05,6.90
2020,10,26,19,06,6.90
2020,10,26,19,07,6.90
2020,10,26,19,08,6.80
2020,10,26,19,09,6.80
2020,10,26,19,10,6.80
2020,10,26,19,11,6.80
2020,10,26,19,12,6.80
2020,10,26,19,13,6.80
2020,10,26,19,14,6.70
2020,10,26,19,15,6.70
2020,10,26,19,16,6.70
2020,10,26,19,17,6.70
2020,10,26,19,18,6.70
2020,10,26,19,19,6.60
2020,10,26,19,20,6.60
2020,10,26,19,21,6.60
2020,10,26,19,22,6.50